Regional Weather Roundup
Issued by NWS Wakefield, VA

Home | Current Version | Previous Version | Text Only | Print | Product List | Glossary Off
Versions: 1 2 3 4 5 6 7 8 9 10 11 12 13 14 15 16 17 18 19 20 21 22 23 24 25 26 27 28 29 30 31 32 33 34 35 36 37 38 39 40 41 42 43 44 45 46 47 48 49 50

000
ASUS41 KAKQ 240110
RWRAKQ

REGIONAL WEATHER ROUNDUP
NATIONAL WEATHER SERVICE WAKEFIELD VA
900 PM EDT WED JUL 23 2014

Note: "fair" indicates few or no clouds below 12,000 feet with no
significant weather and/or obstructions to visibility. * = Denotes
station may not report precipitation (e.g., rain,snow,etc.),
thunder or fog.

VAZ042-051-052>054-056-240200-
NORTHERN VIRGINIA

CITY           SKY/WX    TMP DP  RH WIND       PRES   REMARKS
WASH NATIONAL  CLOUDY    84  68  58 NW6       29.86R
DULLES         CLOUDY    78  69  73 NW3       29.87S
FORT BELVOIR   DRIZZLE   85  68  57 N2        29.85S
QUANTICO       CLOUDY    85  68  56 NW10      29.86R THUNDER
FREDERICKSBRG* CLOUDY    85  73  65 W13       29.84R
STAFFORD*      TSTM      81  73  77 NW14      29.90R
WARRENTON      CLOUDY    80  76  89 W3        29.88R THUNDER
CULPEPER*      CLOUDY   N/A N/A N/A CALM      29.89R
MANASSAS*      CLOUDY    81  70  69 CALM      29.87R
LEESBURG*      MOCLDY    73  73 100 SW5       29.89R
WINCHESTER     MOCLDY    79  66  65 SW3       29.90S
$$

VAZ048-049-060>072-079>083-240200-
CENTRAL AND SOUTH CENTRAL VIRGINIA...AND NORTH CENTRAL NORTH CAROLINA

CITY           SKY/WX    TMP DP  RH WIND       PRES   REMARKS
RICHMOND       PTCLDY    87  70  56 SW8       29.86F
CHESTERFIELD*  CLOUDY    84  64  51 SW5       29.89S
HANOVER        PTCLDY    88  69  53 SW7       29.87S
TAPPAHANNOCK*  PTCLDY    84  68  58 S5        29.86S
CHARLOTTSVILLE CLOUDY    73  70  90 W3        29.89R FOG
ORANGE*        CLOUDY    73  68  83 CALM      29.90S
LOUISA*        MOCLDY    84  70  61 NW9       29.88R
FARMVILLE*     PTCLDY    82  70  65 S3        29.86S
SOUTH HILL*    MOCLDY    82  73  74 S3        29.95S
ROANOKE RAPIDS MOCLDY    82  72  69 S6        29.91R
RALEIGH        PTCLDY    79  69  71 SW8       29.93S
$$

VAZ088>098-240200-
SOUTHEAST VIRGINIA

CITY           SKY/WX    TMP DP  RH WIND       PRES   REMARKS
NORFOLK        CLEAR     84  72  67 SW10      29.89R
VIRGINIA BEACH PTCLDY    84  73  69 S10       29.89R
NORFOLK NAVAL  PTCLDY    86  74  67 S6        29.91R
WEST POINT*    CLEAR     86  72  63 CALM      29.87S
NEWPORT NEWS   CLEAR     88  74  63 SW12      29.88R HX  96
LANGLEY AFB    CLEAR     85  74  69 SW12      29.88R
FORT EUSTIS    PTCLDY    84  74  72 S5        29.87R
WILLIAMSBURG*  CLEAR     86  75  70 S5        29.88S HX  95
FRANKLIN*      PTCLDY    82  73  74 SW6       29.90R
WAKEFIELD      PTCLDY    83  73  72 S3        29.89R
$$

VAZ020-022-025-037-045-240200-
WESTERN AND SOUTHWEST VIRGINIA

CITY           SKY/WX    TMP DP  RH WIND       PRES   REMARKS
STAUNTON*      CLOUDY    73  68  86 CALM      29.96R
HOT SPRINGS VA MOCLDY    68  60  76 NW5       30.10R
LYNCHBURG      PTCLDY    80  69  69 SW8       29.92S
DANVILLE       MOCLDY    78  72  81 W5        29.92S
MARTINSVILLE   MOCLDY    74  70  87 CALM      29.97S
ROANOKE        NOT AVBL
BLACKSBURG     PTCLDY    77  70  78 CALM      30.03S
DUBLIN*        PTCLDY    76  68  76 SW5       30.03R
MARION*        PTCLDY    74  72  92 W7        30.08R
HILLSVILLE*    MOCLDY    71  67  86 CALM      30.05S
RICHLANDS*     MOCLDY    74  69  83 SW3       30.06S
WISE*          PTCLDY    68  64  88 NW3       30.08F
ABINGDON*      CLOUDY    75  69  82 NW3       30.05R
$$

MDZ021>025-VAZ099-100-240200-
SOUTHERN MARYLAND AND THE DELMARVA PENINSULA

CITY           SKY/WX    TMP DP  RH WIND       PRES   REMARKS
PATUXENT RIVER MOCLDY    82  76  81 SE6       29.84S
BAY BRIDGE APT   N/A     82  72  69 N9        29.84S
LEONARDTOWN    MOCLDY    82  70  65 CALM      29.86S
DOVER          MOCLDY    83  75  78 SW7       29.84R
GEORGETOWN     PTCLDY    81  72  74 S14       29.86S
EASTON         NOT AVBL
CAMBRIDGE      MOCLDY    82  72  69 S6        29.84F
SALISBURY      NOT AVBL
OCEAN CITY     CLEAR     79  75  87 SW9       29.87S
WALLOPS ISLAND CLEAR     79  76  90 SW10      29.88S
ACCOMACK*        N/A     79  73  83 S5        29.87S
$$

NCZ012>017-030>032-240200-
EASTERN NORTH CAROLINA

CITY           SKY/WX    TMP DP  RH WIND       PRES   REMARKS
ELIZABETH CITY PTCLDY    80  74  81 SW12      29.92R
AHOSKIE*       PTCLDY    79  73  81 CALM      29.92R
EDENTON*       MOCLDY    82  74  79 SW8       29.94R
CURRITUCK*     PTCLDY    82  72  70 SW8       29.92R
KILL DEVIL HLS PTCLDY    80  75  84 SW6       29.92R
MANTEO         NOT AVBL
CAPE HATTERAS  PTCLDY    79  77  94 SW14G20   29.94R
GOLDSBORO      PTCLDY    81  77  89 SW3       29.91S
WASHINGTON     MOCLDY    79  76  90 S5        29.93S
GREENVILLE     PTCLDY    81  75  83 SW5       29.94S
NEW BERN       MOCLDY    81  75  82 S8        29.95S
WILMINGTON     MOCLDY    81  74  79 S5        29.96S
$$

VAZ048-240200-
ELSEWHERE

CITY           SKY/WX    TMP DP  RH WIND       PRES   REMARKS
HARRISBURG PA  CLOUDY    77  70  79 CALM      29.86R
BALTIMORE      TSTM      76  71  85 CALM      29.84F
ANNAPOLIS      CLOUDY    83  77  82 CALM      29.85R
ANDREWS AFB    CLOUDY    84  69  60 NW7       29.86R
WILMINGTON DE  LGT RAIN  73  70  90 SW6       29.87F
PHILADELPHIA   TSTM      76  68  76 W13       29.88R
WILDWOOD NJ*   PTCLDY    77  70  78 S10       29.87R
ATLANTIC CITY  MOCLDY    77  72  84 S7        29.85R
HENDERSON NC   CLEAR     82  69  64 S8        29.92S
GREENSBORO     MOCLDY    81  71  71 W6        29.94S
ROCKY MOUNT    PTCLDY    79  73  82 S5        29.92R
FAYETTEVILLE   PTCLDY    82  74  76 S8        29.94R
CHARLOTTE      PTCLDY    79  69  71 W5        29.97S
$$

VAZ100-240200-
MARINE

STATION/POSITION TIME  TEMP    WIND        PRES    WAVE   SWELL
                       AIR SEA DIR/SP/G            HT/PER HT/PER
                 (UTC) (F)     (DEG/KT/KT) (MB)    (FT/S) (FT/S)
44066 TX TWR #4  0100   75 74  210/ 12/ 14 1011.1R   2/ 4   2/ 8
CAPE MAY NJ      0100   76 78  170/  7/ 10 1010.7R
LEWES DE         0100   81 72  200/  5/  9 1010.8S
15NM E FENWICK I 0100   77 77              1011.5R   3/ 4
OCEAN-CITY-INLET 0100   74 72  210/ 12/ 14 1011.3S
WACHAPREAGUE VA  0100   81 84  200/  7/ 10 1011.6R
THOMAS POINT MD  0100   82 79  160/ 11/ 12 1010.6F
GOOSES REEF MD   0100   82     180/ 12/ 14 1010.6F
COVE POINT MD    0100   81     190/ 12/ 13 1010.3S
SOLOMONS ISLAND  0100      83                N/A
BISHOPS HEAD MD  0100   83 84  180/ 12/ 15 1010.6S
PINEY POINT MD   0100          200/  6/  7   N/A
POTOMAC MD       0100   83     180/ 10/ 12 1009.9F
CAMBRIDGE MD     0100   83 80  170/  5/  8 1010.2F
LEWISETTA VA     0100   85 83  200/  6/  8 1010.4R
RAPPAHANNOCK LGT 0100          180/ 13/ 14 1011.8F
STINGRAY PT      0100   84     200/  8/ 10 1011.7F
YORK RVR RNG VA  0100   85     220/ 12/ 14 1011.1R
YORKTOWN VA      0100   85 80  200/  7/  9 1011.3S
JAMESTOWN VA     0100   84     220/  6/  8   N/A
DOMINION TERM VA 0100   83     210/  6/  7 1012.1R
KIPTOPEKE VA     0100      82  190/  6/  7   N/A
CHES BAY BRIDGE  0100   85 78  200/ 12/ 12 1011.5S
CAPE HENRY VA    0100   84     210/  5/  8 1010.9R
WILLOUBY STN VA  0100          250/  6/ 10 1011.5R
S CRANEY ISL VA  0100          190/  7/ 10 1012.1S
CAPE HENRY BUOY  0100      78                N/A     2/11
1ST LANDING BUOY 0100   85     220/ 10/ 12 1011.6S
CAPE CHARLES BUO 0100      77                N/A     2/ 3
OFFSHORE WE BUOY 0100      78                N/A     3/ 3
64NM E OF VA BCH 0100   79 79  210/ 17/ 21 1012.4R   3/ 5   2/ 8
DUCK PIER NC     0100   81 74  210/ 11/ 15 1012.5R
44056 DUCK FRF   0100                        N/A     2/ 8
OREGON INLET NC  0100   81 84  220/ 16/ 18 1013.1R
HATTERAS NC      0100   79 83  220/ 10/ 14 1014.4F
DIAMOND SHLS NC  0100          VRB 19/ 23  1013.7R   4/ 4   2/ 7
CAPE LOOKOUT NC  0000   80     230/ 12/ 16 1014.4F
$$


USA.gov is the U.S. government's official web portal to all federal, state and local government web resources and services.